www.pogodaiklimat.ru
ПОГОДА в Шишмареве
Время
и дата
14:56 21.05
15:56 21.05
16:56 21.05
17:56 21.05
18:56 21.05
19:56 21.05
20:56 21.05
21:56 21.05
22:56 21.05
23:56 21.05
00:56 22.05
01:56 22.05
02:56 22.05
03:56 22.05
04:56 22.05
05:56 22.05
06:56 22.05
07:56 22.05
08:56 22.05
09:56 22.05
10:56 22.05
11:56 22.05
12:56 22.05
13:56 22.05
14:56 22.05
15:56 22.05
16:56 22.05
17:56 22.05
18:56 22.05
19:56 22.05
20:56 22.05
21:56 22.05
22:56 22.05
23:56 22.05
00:56 23.05
01:56 23.05
02:56 23.05
03:56 23.05
04:56 23.05
05:56 23.05
06:56 23.05
07:56 23.05
08:56 23.05
09:56 23.05
10:56 23.05
11:56 23.05
12:56 23.05
13:56 23.05
Ветер
(напр.,м/с)
Видим. Явления Облачность Т
(С)
Тd
(С)
f
(%)
Тe
(С)
Тes
(С)
Комфортность P
(гПа)
Po
(гПа)
Тmin
(С)
Tmax
(С)
R
(мм)
R24
(мм)
S
(см)
СВ 3 16 км ясно +2.8 +0.6 85 -3 +1 1022.1 1021.4 +2.2 +4.4
СВ 3 16 км ясно +2.8 +0.6 85 -3 +1 1021.8 1021.1
СВ 3 16 км ясно +2.8 +0.6 85 -3 -1 1021.5 1020.7
СВ 3 16 км ясно +2.8 +0.6 85 -3 0 1021.1 1020.4
СВ 3 16 км ясно +2.2 0.0 85 -4 -1 1020.9 1020.4
СВ 2 16 км ясно +2.2 +0.6 89 -3 -1 1020.7 1020.1
СВ 2 16 км ясно +1.7 +0.6 92 -4 -3 1020.4 1019.7 +1.7 +2.8
СВ 2 16 км ясно +1.1 0.0 92 -5 -4 1020.4 1019.7
СВ 2 16 км ясно +1.1 -0.6 88 -4 -4 1020.3 1019.7
СВ 2 16 км ясно +0.6 -0.6 92 -5 -5 1020.2 1019.7
СВ 2 16 км ясно -0.6 -1.7 92 -6 -6 1020.0 1019.4
СВ 2 16 км ясно -1.7 -2.2 96 -8 -8 1019.8 1019.0
С 2 16 км ясно -2.2 -2.8 96 -8 -8 1019.6 1019.0 -2.2 +2.2
С 2 16 км ясно -2.2 -2.8 96 -8 -8 1019.3 1018.7
СВ 2 16 км ясно -2.8 -3.3 96 -10 -10 1019.1 1018.4
СВ 1 16 км ясно -2.2 -2.8 96 -7 -7 1019.1 1018.4
16 км ясно -1.1 -1.7 96 -2 -2 1019.1 1018.4
С 2 16 км ясно 0.0 -0.6 96 -6 -5 1018.9 1018.4
СВ 1 16 км ясно +3.3 +2.8 97 0 +2 1019.1 1018.4 -2.8 +3.3
С 1 16 км ясно +3.9 +1.1 82 0 +3 1018.8 1018.0
С 1 16 км ясно +3.9 +1.1 82 0 +5 1018.7 1018.0
С 1 16 км ясно +1.7 0.0 88 -3 +4 1018.6 1018.0
С 1 16 км ясно +1.7 0.0 88 -3 +5 1018.6 1018.0
С 2 16 км ясно +1.1 0.0 92 -4 +3 1018.4 1017.7
СЗ 2 16 км ясно +1.1 0.0 92 -4 +3 1018.2 1017.7 +1.1 +4.4
С 2 16 км ясно +1.7 0.0 88 -3 +4 1018.0 1017.3
СЗ 1 16 км ясно +1.7 0.0 88 -2 +8 1018.1 1017.3
СЗ 1 16 км ясно +1.7 +0.6 92 -2 +6 1017.7 1017.0
СЗ 1 16 км ясно +1.1 0.0 92 -3 +2 1017.7 1017.0
СЗ 1 16 км ясно +1.7 +1.1 96 -3 +1 1017.5 1017.0
СЗ 1 16 км ясно +0.6 -0.6 92 -4 -2 1017.3 1016.7 +0.6 +1.7
СЗ 1 16 км ясно -1.1 -2.2 92 -6 -5 1017.1 1016.7
З 1 16 км ясно -0.6 -1.1 96 -6 -5 1017.2 1016.7
З 2 16 км ясно -1.7 -2.2 96 -8 -8 1017.1 1016.7
З 2 16 км ясно -2.8 -3.3 96 -9 -9 1017.0 1016.3
З 2 16 км ясно -3.3 -3.9 96 -10 -10 1016.8 1016.0
З 2 16 км ясно -4.4 -4.4 100 -11 -11 1016.8 1016.0 -4.4 +1.1
З 2 16 км ясно -3.9 -4.4 96 -10 -10 1016.4 1015.7
З 1 16 км ясно -2.8 -2.8 100 -8 -8 1016.2 1015.7
З 2 16 км ясно -2.8 -2.8 100 -9 -9 1015.9 1015.3
З 2 16 км ясно -3.3 -3.3 100 -10 -9 1016.2 1015.7
З 2 16 км ясно -2.8 -3.3 96 -9 -8 1016.3 1015.7
З 2 16 км ясно -1.1 -1.7 96 -7 -5 1016.2 1015.7 -4.4 -1.1
З 1 16 км ясно +0.6 -0.6 92 -4 -1 1016.2 1015.7
З 2 16 км ясно +0.6 -0.6 92 -5 -1 1016.2 1015.7
З 2 16 км ясно +0.6 -0.6 92 -5 0 1016.0 1015.3
З 1 16 км ясно +2.2 0.0 85 -1 +8 1015.7 1015.0
З 2 16 км ясно +2.8 +0.6 85 -2 +5 1015.9 1015.3
Местоположение метеостанции Shishmaref Airport: широта 66.2667 долгота -166.0833 высота над уровнем моря 4 м.
В архиве по умолчанию представлена погода в Шишмареве за последние 1-2 суток. Обновление информации о фактической погоде в базе происходит ежечасно! Архивные данные за месяц целиком и за предыдущие месяцы Вы можете получить, выбрав интересующий диапазон дат из раскрывающегося списка и нажав кнопку "Ввод!".
Внимание! Архив погоды МЕТАР в базе сайта по станциям, не включенным в климатический монитор, хранится не более 60 дней. Нет смысла пытаться выбрать более раннюю дату.
*Определитесь, кто Вы:
Внимание! Время в таблицах - местное (без учета летнего времени). Для получения всемирного времени необходимо вычесть поправку, которая равна -9 ч.
Смотрите также архив погоды в соседних городах и на ближайших метеорологических станциях:
Партнеры нашего сайта:      
Пояснения к столбцам:
  • Ветер - указаны скорость ветра в м/с - средняя за 10 мин, порывы в срок и между сроками (в фигурных скобках) и направление, откуда дует ветер: С - северный,
  • СВ - северо-восточный, В - восточный, ЮВ - юго-восточный, Ю - южный, ЮЗ - юго-западный, З - западный, СЗ - северо-западный.
  • Видимость - горизонтальная дальность видимости в метрах или километрах. При видимости от 1 до 10 км при отсутствии осадков обычно наблюдается дымка, при ухудшении видимости до 1 км и менее - туман. В сухую погоду видимость может ухудшаться дымом, пылью или мглою.
  • Явления - указаны атмосферные явления, наблюдавшиеся в срок или в последний час перед сроком; фигурными скобками обозначены явления, наблюдавшиеся между сроками (за 1-3 часа до срока); квадратными скобками обозначены град или гололедные отложения с указанием их диаметра в мм.
  • Облачность - указаны через наклонную черту общая и нижняя облачность в баллах и высота нижней границы облаков в метрах; квадратными скобками обозначены формы облаков: Ci - перистые, Cs - перисто-слоистые, Cc - перисто-кучевые, Ac - высококучевые, As - высокослоистые, Sc - слоисто-кучевые, Ns - слоисто-дождевые, Cu - кучевые, Cb - кучево-дождевые. Подробнее классификацию облаков см. в Атласе облаков (PDF).
  • T - Температура воздуха - температура, измеренная на высоте 2 м над землей.
  • Td - Температура точки росы - температура, при понижении до которой содержащийся в воздухе водяной пар достигнет насыщения.
  • f - Относительная влажность воздуха - влажноcть воздуха, измеренная на высоте 2 м над землей.
  • Te - Эффективная температура - температура, которую ощущает одетый по сезону человек в тени. Характеристика душности погоды. При расчете учитывается влияние влажности воздуха и скорости ветра на теплоощущения человека.
  • Tes - Эффективная температура на солнце - температура, которую ощущает человек, с поправкой на солнечный нагрев. Характеристика знойности погоды. Зависит от высоты солнца над горизонтом, облачности и скорости ветра. Ночью, в пасмурную погоду, а также при ветре 12 м/с и более поправка равна нулю.
  • P - Атмосферное давление - приведенное к уровню моря атмосферное давление.
  • Po - Атмосферное давление - измеренное на уровне метеостанции атмосферное давление.
  • Tmin - Минимальная температура - минимум температуры воздуха на высоте 2 м над землей.
  • Tmax - Максимальная температура - максимум температуры воздуха на высоте 2 м над землей.
  • R - Количество осадков - Количество выпавших осадков за период времени, мм. При наведении курсора мыши на число - период времени, за который выпало указанное количество осадков.
  • R24 - Количество осадков - Количество выпавших осадков за 24 часа, мм.
  • S - Снежный покров - Высота снежного покрова, см. При наведении курсора мыши на число - состояние снежного покрова и степень покрытия местности в баллах.